Flag for Norway Weather past 2 weeks in Sandefjord, Norway

Now
46 °F

Clear.


Feels Like: 40 °F
Forecast: 43 / 61 °F
Wind: 15 mph from Northeast

Location: Torp

Current Time: Apr 18, 2015 at 11:34:33 PM

Latest Report: Apr 18, 2015 at 10:50 PM


Visibility: 10 mi

Pressure: 30.24 "Hg

Humidity: 62%

Dew point: 34 °F

Location of SandefjordLocation

Historic Weather in Sandefjord — Graph

°F

Sandefjord temperature yesterday

Maximum temperature yesterday: 54 °F (at 1:20 PM)
Minimum temperature yesterday: 39 °F (at 2:50 AM)
Average temperature yesterday: 47 °F

Past Weeks' High & Low Weather Summary

 TemperatureHumidityPressure
High61 °F (Apr 7, 3:50 PM)100% (Apr 10, 8:20 PM)30.45 "Hg (Apr 10, 8:20 PM)
Low28 °F (Apr 5, 4:20 AM)22% (Apr 8, 2:20 PM)29.45 "Hg (Apr 15, 5:20 PM)
Average44 °F61%30.02 "Hg
* Reported Apr 3 9:20 PM — Apr 18 9:50 PM, Sandefjord, Weather by CustomWeather, © 2015

Note: Actual official high and low records may vary slightly from our data, if they occured in-between our weather recording intervals... More about our weather records

Advertising

Sandefjord weather history for previous 24 hours

 ConditionsComfort  
Time TempWeatherWind HumidityBarometerVisibility
9:50 PM
Sat, Apr 18
48 °FPassing clouds.16 mph50%30.21 "HgN/A
9:20 PM50 °FSunny.15 mph43%30.21 "Hg10 mi
8:50 PM50 °FSunny.13 mph43%30.18 "Hg10 mi
8:20 PM50 °FSunny.14 mph43%30.18 "Hg10 mi
7:50 PM50 °FSunny.13 mph43%30.18 "Hg10 mi
7:20 PM52 °FSunny.12 mph41%30.18 "Hg10 mi
6:50 PM54 °FSunny.14 mph38%30.15 "Hg10 mi
6:20 PM55 °FPassing clouds.7 mph38%30.15 "HgN/A
5:50 PM52 °FPassing clouds.3 mph50%30.15 "HgN/A
5:20 PM54 °FPassing clouds.5 mph47%30.15 "HgN/A
4:50 PM54 °FPassing clouds.3 mph47%30.15 "HgN/A
4:20 PM54 °FPassing clouds.8 mph47%30.15 "HgN/A
3:50 PM54 °FSunny.8 mph51%30.15 "Hg10 mi
3:20 PM54 °FPassing clouds.6 mph51%30.18 "HgN/A
2:50 PM54 °FPassing clouds.6 mph51%30.18 "HgN/A
2:20 PM54 °FPassing clouds.7 mph47%30.18 "HgN/A
1:50 PM54 °FSunny.7 mph47%30.21 "Hg10 mi
1:20 PM52 °FPassing clouds.6 mph50%30.21 "HgN/A
12:50 PM52 °FPassing clouds.7 mph47%30.21 "HgN/A
12:20 PM50 °FSunny.5 mph50%30.24 "Hg10 mi
11:50 AM50 °FPassing clouds.5 mph50%30.24 "HgN/A
11:20 AM48 °FPassing clouds.6 mph54%30.24 "HgN/A
10:50 AM48 °FSunny.6 mph54%30.24 "Hg10 mi
10:20 AM48 °FSunny.5 mph54%30.24 "Hg10 mi
9:50 AM48 °FSunny.6 mph54%30.24 "Hg10 mi
9:20 AM48 °FPassing clouds.3 mph54%30.27 "HgN/A
8:50 AM46 °FPassing clouds.3 mph57%30.27 "HgN/A
8:20 AM43 °FSunny.3 mph66%30.27 "Hg10 mi
7:50 AM41 °FSunny.1 mph66%30.27 "Hg10 mi
7:20 AM37 °FSunny.1 mph75%30.27 "Hg10 mi
6:50 AM36 °FClear.2 mph75%30.27 "Hg10 mi
6:20 AM36 °FClear.1 mph75%30.30 "Hg10 mi
5:50 AM36 °FClear.2 mph75%30.30 "Hg10 mi
5:20 AM36 °FChilly.1 mph75%30.30 "HgN/A
4:50 AM36 °FChilly.2 mph75%30.30 "HgN/A
4:20 AM39 °FChilly.5 mph65%30.30 "HgN/A
3:50 AM39 °FChilly.3 mph65%30.30 "HgN/A
3:20 AM39 °FChilly.3 mph65%30.30 "HgN/A
2:50 AM41 °FQuite cool.3 mph61%30.30 "HgN/A
2:20 AM41 °FQuite cool.3 mph61%30.30 "HgN/A
1:50 AM41 °FQuite cool.3 mph61%30.30 "HgN/A
1:20 AM41 °FQuite cool.3 mph61%30.30 "HgN/A
12:50 AM43 °FQuite cool.5 mph57%30.30 "HgN/A
12:20 AM43 °FQuite cool.5 mph57%30.27 "HgN/A
11:50 PM
Fri, Apr 17
43 °FQuite cool.2 mph57%30.27 "HgN/A
11:20 PM43 °FQuite cool.7 mph57%30.27 "HgN/A
Weather by CustomWeather, © 2015

See weather overviewHow to use our weather pages